Printer-friendly version

IAU Minor Planet Center

Minor Planet Center

MPEC 2006-V43 : 2006 OB5

The following Minor Planet Electronic Circular may be linked-to from your own Web pages, but must not otherwise be redistributed electronically.


Read MPEC 2006-V42 Read MPEC 2006-V44


M.P.E.C. 2006-V43                                Issued 2006 Nov. 13, 05:13 UT

     The Minor Planet Electronic Circulars contain information on unusual
         minor planets and routine data on comets.  They are published
   on behalf of Commission 20 of the International Astronomical Union by the
          Minor Planet Center, Smithsonian Astrophysical Observatory,
                          Cambridge, MA 02138, U.S.A.

             Prepared using the Tamkin Foundation Computer Network

                              MPC@CFA.HARVARD.EDU
          URL http://cfa-www.harvard.edu/iau/mpc.html  ISSN 1523-6714

                                   2006 OB5

                           Revision to MPEC 2006-O31

Additional Observations:
     K06O05B  C2002 05 07.24836 14 35 28.49 -16 36 27.8          19.9 R EV043644
     K06O05B  C2002 05 07.33103 14 35 19.95 -16 35 53.3          19.8 R EV043644
     K06O05B  C2002 05 07.39894 14 35 13.10 -16 35 25.4          19.9 R EV043644
     K06O05B  C2002 05 18.28957 14 18 06.75 -15 17 28.5          20.2 R EV043644
     K06O05B  C2002 05 18.31324 14 18 04.55 -15 17 18.8          20.0 R EV043644

Observer details:
644 Palomar Mountain/NEAT.  Observers E. F. Helin, S. Pravdo, K. Lawrence,
    K. Kuluhiwa, M. Hicks.  Measurer R. Matson.  1.2-m Schmidt + CCD.

Orbital elements:
2006 OB5                                                 Earth MOID = 0.1919 AU
Epoch 2006 Sept. 22.0 TT = JDT 2454000.5                MPC
M   2.77234              (2000.0)            P               Q
n   0.51922919     Peri.  357.23193     +0.99353110     +0.11355746
a   1.5330747      Node   356.24736     -0.10394929     +0.90653590
e   0.2186468      Incl.    0.71243     -0.04572201     +0.40656779
P   1.90           H   20.3           G   0.15           U   1
Residuals in seconds of arc
020507 644  0.5+  0.5+    060827 699  0.3-  0.2-    060923 A53  0.1-  0.6+
020507 644  0.7-  0.5+    060827 699  0.1+  0.0     060925 H51  0.0   0.1+
020507 644  0.6+  0.5-    060830 704  0.6-  0.0     060925 H51  0.1-  0.3-
020518 644  0.1+  0.4+    060830 704  0.4-  0.0     060925 H51  0.3+  0.4-
020518 644  0.2-  0.0     060830 704  0.2+  0.2+    060925 699  0.1+  0.4+
060721 704  0.7+  0.2-    060830 704  0.3+  0.4+    060925 699  0.5-  0.7+
060721 704  0.9+  1.1+    060830 704  0.4+  0.5+    060925 699  0.1-  0.1+
060721 704  0.9+  0.3+    060830 A86  1.1-  0.8-    060925 699  0.2+  0.2+
060721 704  0.9+  0.0     060830 A86  1.4-  0.1+    060926 H45  0.2-  0.4-
060722 J87  0.9-  0.3+    060830 A86  1.3-  0.3+    060926 H45  0.0   0.7-
060722 J87  0.4+  0.6-    060831 808  1.0-  0.3+    060926 H45  0.1-  0.4-
060722 J87  0.4+  0.0     060831 808  0.5-  0.6-    060926 H45  0.0   0.4-
060722 I77  0.8+  0.0     060831 808  0.1-  0.3-    060926 H45  0.0   0.3-
060722 I77  0.4+  0.0     060901 A78  0.5-  0.0     060929 808  0.1+  0.3-
060722 I77  0.1+  0.4-    060901 A78  0.3-  0.4-    060929 808  0.0   0.2-
060722 734  0.3-  0.1+    060901 A78  0.7-  0.0     060929 808  0.1+  0.3-
060722 734  0.2-  0.3+    060902 808  0.4-  0.4-    060929 704  0.1-  0.4-
060722 734  0.3-  0.0     060902 808  2.2-  1.3-    060929 704  0.9+  0.1-
060722 734  0.2+  0.0     060902 808  0.7-  1.1-    060929 704  0.7+  0.3+
060722 734  0.1+  0.0     060904 203  0.3-  0.2+    060929 704  0.7+  0.1+
060723 A44  0.5-  0.2-    060905 203  0.1+  0.5+    060929 704  0.0   0.3+
060723 J95  0.2+  0.0     060905 595  0.2-  0.3+    060929 H45  0.1-  0.4-
060723 J95  0.5-  0.4-    060905 595  0.1+  0.1-    060929 H45  0.0   0.3-
060723 A44  0.1-  0.2-    060905 595  0.3-  0.2+    060929 H45  0.0   0.2-
060723 J95  0.1+  0.2-    060913 H45  0.4-  0.5-    060929 H45  0.1-  0.3-
060723 A44  0.3-  0.2-    060913 H45  0.3-  0.1-    060929 H45  0.0   0.3-
060724 J95  0.2+  0.1-    060913 H45  0.3-  0.1-    060929 A41  0.2+  0.2+
060724 J95  0.7+  0.4-    060913 H45  0.4-  0.3-    060929 A41  0.2+  0.4+
060724 J95  0.1+  0.4-    060913 H45  0.3-  0.2-    060929 A41  0.3+  0.4+
060725 H45  0.1-  0.2+    060913 H45  0.6-  0.1-    060930 704  0.0   0.2+
060725 H45  0.1-  0.3+    060913 113  0.5+  0.5-    060930 704  0.4-  0.5+
060725 H45  0.0   0.1+    060913 113  0.1-  0.3-    060930 704  0.7+  0.2+
060725 H45  0.2-  0.2+    060913 113  0.2+  0.4-    060930 704  0.6-  0.7+
060725 H45  0.0   0.2+    060913 113  0.1+  0.4-    060930 704  0.2+  1.0+
060725 H45  0.0   0.2+    060913 113  0.1+  0.9-    061003 H45  0.2-  0.2-
060725 644  0.0   0.3+    060913 198  0.2-  0.1+    061003 H45  0.2+  0.3-
060725 644  0.1+  0.1+    060913 198  0.2-  0.2+    061003 H45  0.1+  0.5-
060725 644  0.1+  0.0     060913 198  0.3-  0.2+    061003 H45  0.1+  0.5-
060731 H45  0.3-  0.3+    060913 198  0.2-  0.2+    061003 H45  0.1+  0.4-
060731 H45  0.3-  0.2+    060913 198  0.3-  0.2+    061003 H45  0.1-  0.2-
060731 H45  0.6-  0.3+    060915 H45  0.1-  0.2-    061009 644  0.2+  0.0
060731 H45  0.6-  0.3+    060915 H45  0.2-  0.3-    061009 644  0.5-  0.4-
060731 H45  0.3-  0.2+    060915 H45  0.2-  0.3-    061009 644  0.1+  0.0
060731 H45  0.4-  0.2+    060915 H45  0.1-  0.4-    061012 151  0.2+  0.1-
060731 H45  0.5-  0.1+    060915 H45  0.2-  0.4-    061012 151  0.3+  0.0
060731 H45  0.4-  0.2+    060916 J68  2.2+  2.4+    061012 151  0.3+  0.0
060801 H45  0.1+  0.4-    060916 J68  0.8-  0.2-    061014 H45  0.8-  0.9-
060801 H45  0.1+  0.2-    060916 J68 (0.5+  4.7-)   061014 H45  0.4-  0.7-
060801 H45  0.0   0.1-    060916 699  0.5-  0.2+    061014 H45  0.3-  0.4-
060801 H45  0.3+  0.6-    060916 699  0.6-  0.1+    061014 H45  0.3-  0.3-
060801 H45  0.2+  0.3-    060916 699  0.3-  0.1+    061014 H45  0.3-  0.1-
060801 H45  0.1-  0.1-    060916 699  0.3-  0.3+    061014 H45  0.1+  0.2-
060801 H45  0.1+  0.1-    060916 H45  0.2-  0.5-    061016 703  1.7-  0.1+
060816 649  0.1-  0.1+    060916 H45  0.1-  0.3-    061016 703  0.4+  0.1-
060816 649  0.2-  0.1-    060916 H45  0.4-  0.3-    061016 703  0.6+  0.3-
060816 649  0.3-  0.1-    060916 H45  0.3-  0.4-    061017 046  0.0   0.3-
060816 644  0.1-  0.1-    060916 H45  0.3-  0.3-    061017 046  0.7-  0.1-
060816 644  0.3-  0.1-    060917 704  1.3+  0.9-    061017 046  0.0   0.4-
060816 644  0.2-  0.1-    060917 704  1.7+  0.2-    061017 046  0.4-  0.3-
060818 704  0.3+  0.2+    060917 704  2.0+  0.2+    061017 046  0.0   0.3+
060818 704  0.2+  0.1+    060917 704  0.2+  0.8+    061017 046  0.2-  0.4+
060818 704  0.1-  0.6+    060917 704  0.5+  2.3+    061017 046  0.1+  0.6+
060818 704  0.0   0.5-    060918 704  0.2+  1.1-    061017 046  0.6-  0.6+
060818 704  0.1+  0.0     060918 704  2.0+  1.6+    061017 130  0.5+  0.1-
060818 644  0.3-  0.1-    060918 704  0.4+  1.1+    061017 130  0.3+  0.0
060818 644  0.3-  0.0     060918 704 (3.5+  2.5+)   061017 130  0.4+  0.2-
060818 644  0.4-  0.1-    060918 704  0.2-  2.5+    061017 130  0.2+  0.4-
060821 704  0.1-  0.4+    060919 699  0.0   0.1+    061020 644  0.0   0.3+
060821 704  0.1+  0.5+    060919 699  0.4-  0.2-    061020 644  0.2-  0.2+
060821 704  0.2+  0.9+    060919 699  0.2-  0.4+    061020 644  0.0   0.3+
060821 704  0.0   1.1+    060919 699  0.4-  0.2+    061020 H45  0.2+  0.5-
060821 704  0.1+  0.4+    060919 608  0.6+  1.5-    061020 H45  0.1-  0.0
060821 H51  0.1-  0.6+    060919 608  0.5+  1.5-    061020 H45  0.2-  0.4-
060821 H51  0.5+  0.2+    060919 608  0.5+  1.5-    061020 H45  0.5+  0.6-
060821 H51  0.0   0.5-    060920 704  2.5+  1.8-    061020 H45  0.5+  0.6-
060822 644  0.2-  0.3-    060920 704 (3.8+  0.2+)   061020 H45  0.2+  0.3-
060822 644  0.2-  0.1-    060920 704 (3.6+  0.5+)   061020 G96  0.1-  0.2-
060822 644  0.3-  0.1-    060920 704  0.4-  2.4+    061020 G96  0.0   0.3-
060823 644  0.2-  0.2-    060920 H45  0.2-  0.1-    061020 G96  0.1+  0.1-
060823 644  0.1-  0.2-    060920 H45  0.1-  0.1-    061020 G96  0.1-  0.2-
060823 644  0.2-  0.2-    060920 H45  0.3-  0.2-    061023 704  1.1-  0.5+
060824 644  0.1-  0.2-    060920 H45  0.1+  0.1-    061023 704  1.0-  0.2+
060824 644  0.1-  0.2-    060920 H45  0.1+  0.1-    061023 704  0.8-  0.2-
060824 644  0.2-  0.1-    060920 157  0.2-  0.1-    061023 704  1.4-  0.5-
060825 704  0.5+  1.0-    060920 157  0.4-  0.3-    061025 A41  0.2-  0.4+
060825 704  0.8+  0.9+    060920 157  0.3-  0.3-    061025 A41  0.4+  1.1+
060825 704  0.5-  1.3+    060921 160  0.1+  0.2+    061025 A41  0.2-  0.5+
060825 704 (0.6-  3.1+)   060921 160  0.3-  0.1+    061028 704  1.0+  0.3+
060825 H45  0.1-  0.4+    060921 160  0.3+  0.0     061028 704  0.3-  0.5+
060825 H45  0.2-  0.3+    060921 160  0.4-  0.2+    061028 704  0.6+  0.5+
060825 H45  0.3-  0.3+    060921 160  0.1-  0.0     061028 704  0.5+  0.6-
060825 H45  0.1+  0.5+    060923 691  0.2-  0.1+    061028 704  0.2-  0.2+
060825 H45  0.1-  0.3+    060923 691  0.2-  0.2+    061111 703  0.8-  0.7+
060825 H45  0.1-  0.5+    060923 691  0.3-  0.2+    061111 703  0.0   0.1+
060827 699  0.2-  0.2-    060923 A53  0.3+  0.4+    061111 703  0.2+  0.2-
060827 699  0.1+  0.5+    060923 A53  0.4+  0.5+    061111 703  0.7-  0.3+

Ephemeris:
2006 OB5                 a,e,i = 1.53, 0.22, 1                   q = 1.1979
Date    TT    R. A. (2000) Decl.     Delta      r     Elong.  Phase     V
2006 11 11    00 17.92   +03 50.7    0.341    1.262   137.3    32.2    19.8
2006 11 21    00 34.24   +05 35.4    0.396    1.285   131.6    35.1    20.3
2006 12 01    00 52.31   +07 26.1    0.458    1.311   126.3    37.3    20.7
2006 12 11    01 11.69   +09 20.0    0.529    1.338   121.4    38.9    21.1
2006 12 21    01 32.09   +11 14.3    0.607    1.367   116.6    40.1    21.5
2006 12 31    01 53.37   +13 07.2    0.692    1.398   111.9    40.8    21.8

Gareth V. Williams           (C) Copyright 2006 MPC           M.P.E.C. 2006-V43

Read MPEC 2006-V42 Read MPEC 2006-V44


Our Web policy. Index to the CBAT/MPC/ICQ pages.


Valid HTML 4.01!